[[{"header":{"parameterUnit":"m.s-1","parameterCategory":2,"la1":30.2991,"la2":30.254,"lo1":-89.0895,"lo2":-89.0444,"dy":0.0017,"dx":0.0017,"nx":28,"ny":28,"refTime":"2024-07-04T21:00:00:Z","depth":"0","parameterNumber":2,"parameterNumberName":"U-component_of_CURRENTS"},"data":[0,0,0,0,0,0,0,0,0,0,0,0,0,0,0,0,0,0,0,0,0,0,0,0,0,0,0,0,0,0,0,0,0,0,0,0,0,0,0,0,0,0,0,0,0,0,0,0,0,0,0,0,0,0,0,0,0,0,0.4391,0.4393,0,0.4525,0.4526,0.4527,0.4515,0.4514,0.4512,0.4511,0.4511,0.4512,0.4513,0,0,0,0,0,0,0,0,0,0,0,0,0,0.416,0.4164,0.4391,0.4393,0.4395,0.4525,0.4526,0.4527,0.4515,0.4513,0.4512,0.451,0.451,0.4512,0.4513,0,0,0,0,0,0,0,0,0,0,0,0,0,0.4268,0.4165,0.4391,0.4409,0.4413,0.4524,0.4526,0.4527,0.4516,0.4513,0.4511,0.4509,0.451,0.4512,0.4514,0.4572,0,0,0.452,0.4521,0,0,0,0,0,0,0,0,0.4262,0.4276,0.4404,0.4408,0.4412,0.4506,0.4445,0.4538,0.4516,0.4471,0.4511,0.4508,0.4502,0.4505,0.4529,0.4572,0.4572,0.452,0.4522,0.4523,0.4523,0,0,0,0,0,0,0,0.4254,0.427,0.4438,0.4407,0.4412,0.4423,0.4435,0.4463,0.449,0.4474,0.4475,0.45,0.4502,0.4527,0.4528,0.4572,0.452,0.4522,0.4523,0.4524,0.4616,0.4617,0,0,0,0,0,0,0.4251,0.4264,0.4434,0.4443,0.4336,0.443,0.4443,0.4473,0.4493,0.4497,0.4502,0.4499,0.4524,0.4526,0.4528,0.4588,0.4523,0.4525,0.4526,0.4615,0.4616,0.4618,0,0,0,0,0,0,0.4246,0.4265,0.4429,0.436,0.4382,0.4436,0.4471,0.4477,0.4498,0.4517,0.4516,0.4516,0.4522,0.4525,0.4537,0.4588,0.4525,0.4527,0.4614,0.4615,0.4617,0.4715,0,0,0,0,0,0,0.4239,0.4263,0.4289,0.436,0.4386,0.4495,0.4474,0.4482,0.452,0.4517,0.4529,0.4527,0.4521,0.4534,0.4539,0.459,0.4529,0.4612,0.4614,0.4616,0.471,0.472,0.4728,0,0,0,0,0,0.423,0.4278,0.4289,0.431,0.4419,0.4498,0.4512,0.4538,0.4523,0.4544,0.4535,0.4526,0.4551,0.4537,0.4543,0.4595,0.4611,0.4614,0.4616,0.4706,0.4718,0.4728,0,0,0,0,0,0,0.4186,0.4284,0.4297,0.437,0.4428,0.4497,0.4533,0.4545,0.4562,0.4547,0.4543,0.4542,0.4574,0.4565,0.4549,0.4624,0.4581,0.4585,0.4647,0.4658,0.4667,0.4711,0.4531,0,0,0,0,0,0.4193,0.4253,0.4334,0.4389,0.4424,0.4477,0.4513,0.4529,0.4557,0.4563,0.4568,0.4571,0.4597,0.4606,0.4618,0.4665,0.4723,0.4699,0.4708,0.4716,0.4754,0.4856,0.4879,0.4626,0.4626,0.4626,0,0,0.4188,0.4253,0.4284,0.4384,0.4431,0.4507,0.4491,0.4549,0.46,0.456,0.461,0.4603,0.4612,0.4659,0.4674,0.4655,0.4825,0.4719,0.4726,0.4761,0.4862,0.4887,0.4909,0.4628,0.4628,0.4627,0,0,0.4235,0.427,0.4348,0.4402,0.4487,0.4522,0.454,0.4605,0.4621,0.4669,0.4654,0.4678,0.4705,0.4736,0.4754,0.4822,0.4866,0.4813,0.4906,0.5004,0.5027,0.5048,0.5196,0.5229,0.4821,0.4821,0.4822,0,0.4226,0.4344,0.4377,0.4467,0.453,0.4533,0.4628,0.465,0.4701,0.4744,0.4686,0.4775,0.4758,0.4866,0.4871,0.4851,0.4924,0.4866,0.5021,0.5042,0.5062,0.5208,0.5243,0.4826,0.4826,0.4825,0.4825,0,0.4347,0.4431,0.4478,0.4597,0.4654,0.4728,0.4775,0.4816,0.482,0.4853,0.4933,0.4913,0.4979,0.4966,0.4935,0.5072,0.5088,0.5021,0.5004,0.5095,0.5241,0.5277,0.4834,0.4832,0.483,0.4829,0,0,0.4376,0.4536,0.4559,0.4639,0.4733,0.4801,0.4881,0.4991,0.5062,0.507,0.5183,0.5197,0.5184,0.5202,0.5174,0.5236,0.5421,0.5186,0.5189,0.5354,0.5696,0.5632,0.5664,0.5379,0.5384,0.5389,0.5759,0,0.4474,0.4671,0.4719,0.4878,0.4984,0.5012,0.5096,0.5171,0.5201,0.5286,0.5294,0.5361,0.5274,0.53,0.5358,0.539,0.5511,0.5331,0.5566,0.5575,0.5523,0.5701,0.5428,0.5727,0.5793,0.5799,0.5803,0,0.4616,0.4726,0.4915,0.5063,0.511,0.5181,0.5333,0.54,0.5495,0.5519,0.5588,0.5574,0.5683,0.5559,0.5755,0.5643,0.5704,0.5725,0.5738,0.5672,0.5575,0.5636,0.5788,0.5569,0.5858,0.5853,0.5849,0,0.4694,0.4875,0.5033,0.5084,0.5234,0.5313,0.5381,0.5485,0.5548,0.5668,0.572,0.5832,0.5885,0.5973,0.5993,0.5903,0.62,0.6084,0.6123,0.6121,0.5934,0.5905,0.5914,0.6281,0.6281,0.628,0.6279,0,0.4828,0.4948,0.5076,0.516,0.5299,0.539,0.5519,0.5594,0.5705,0.5777,0.5835,0.5912,0.598,0.611,0.6131,0.6259,0.6341,0.6217,0.6226,0.5961,0.5931,0.5761,0.5691,0.6293,0.629,0.6288,0.6285,0,0.4917,0.5012,0.5161,0.5308,0.5342,0.5439,0.5548,0.563,0.575,0.5849,0.5895,0.604,0.6213,0.6309,0.6478,0.6443,0.6382,0.6587,0.6295,0.6261,0.6024,0.597,0.5923,0.5758,0.6717,0.6718,0.6719,0,0.5007,0.5101,0.5221,0.5261,0.5319,0.5438,0.5496,0.5625,0.5687,0.5894,0.5938,0.6167,0.6272,0.6554,0.657,0.6723,0.6461,0.6526,0.6282,0.6046,0.5995,0.5764,0.5608,0.6111,0.6107,0.6103,0.61,0,0.5121,0.5137,0.5221,0.5286,0.5344,0.5412,0.5503,0.5547,0.5688,0.5791,0.5943,0.6072,0.6346,0.6346,0.654,0.6564,0.6178,0.6457,0.6272,0.5606,0.5298,0.5126,0.5877,0.6069,0.6072,0.6074,0.6076,0.6077,0.5147,0.5184,0.5241,0.5289,0.5338,0.5357,0.5344,0.5431,0.551,0.5573,0.5819,0.5884,0.6022,0.6252,0.6249,0.602,0.6056,0.5781,0.5782,0.5603,0.5275,0.5992,0.6124,0.6127,0.613,0.6133,0.6135,0,0.5148,0.5168,0.5232,0.5247,0.5243,0.5293,0.5311,0.5237,0.5225,0.5349,0.5462,0.5502,0.5529,0.5573,0.5534,0.5348,0.508,0.5165,0.4736,0.4651,0.5348,0.514,0.4986,0.4986,0.4986,0.4987,0.4987,0.4987,0.5142,0.5157,0.517,0.5134,0.513,0.503,0.4988,0.488,0.488,0.4771,0.4724,0.4846,0.5027,0.5084,0.4876,0.4765,0.4384,0.4207,0.423,0.4658,0.471,0.476,0.4541,0.4264,0.4263,0.3257,0.3249,0.3244]},{"header":{"parameterUnit":"m.s-1","parameterCategory":2,"la1":30.2991,"la2":30.254,"lo1":-89.0895,"lo2":-89.0444,"dy":0.0017,"dx":0.0017,"nx":28,"ny":28,"refTime":"2024-07-04T21:00:00:Z","depth":"0","parameterNumber":3,"parameterNumberName":"V-component_of_CURRENTS"},"data":[0,0,0,0,0,0,0,0,0,0,0,0,0,0,0,0,0,0,0,0,0,0,0,0,0,0,0,0,0,0,0,0,0,0,0,0,0,0,0,0,0,0,0,0,0,0,0,0,0,0,0,0,0,0,0,0,0,0,-0.0012,-0.0013,0,-0.0065,-0.0065,-0.0066,-0.0129,-0.013,-0.0131,-0.0132,-0.0305,-0.0309,-0.0312,0,0,0,0,0,0,0,0,0,0,0,0,0,0.0065,0.0064,-0.0012,-0.0013,-0.0013,-0.0064,-0.0065,-0.0066,-0.0129,-0.013,-0.0132,-0.0133,-0.0304,-0.0308,-0.0313,0,0,0,0,0,0,0,0,0,0,0,0,0,0.0024,0.0063,-0.0012,-0.0051,-0.0055,-0.0064,-0.0065,-0.0066,-0.0129,-0.013,-0.0132,-0.0133,-0.0302,-0.0308,-0.0313,-0.0318,0,0,-0.033,-0.0333,0,0,0,0,0,0,0,0,0.0026,0.0021,-0.0045,-0.0048,-0.0053,-0.0092,-0.0101,-0.0156,-0.0129,-0.0101,-0.0132,-0.0134,-0.0244,-0.0254,-0.0259,-0.0326,-0.0333,-0.0331,-0.0334,-0.0336,-0.0338,0,0,0,0,0,0,0,0.0029,0.0023,-0.0033,-0.0045,-0.005,-0.0055,-0.0063,-0.0111,-0.0166,-0.0103,-0.0108,-0.0113,-0.0247,-0.0254,-0.0264,-0.0336,-0.0331,-0.0335,-0.0339,-0.0341,-0.0439,-0.0438,0,0,0,0,0,0,0.0035,0.0026,-0.0031,-0.0034,-0.0016,-0.0055,-0.0064,-0.0078,-0.0163,-0.0176,-0.0112,-0.0116,-0.0243,-0.0258,-0.0271,-0.0303,-0.0336,-0.0342,-0.0345,-0.044,-0.0439,-0.0438,0,0,0,0,0,0,0.0037,0.0031,-0.0029,-0.0005,-0.0013,-0.0055,-0.007,-0.0078,-0.0088,-0.0168,-0.0184,-0.0115,-0.0245,-0.0263,-0.0309,-0.031,-0.0344,-0.0349,-0.044,-0.0439,-0.0438,-0.0355,0,0,0,0,0,0,0.0039,0.0031,0.003,-0.0005,-0.0014,-0.0025,-0.0069,-0.0078,-0.0089,-0.0095,-0.0176,-0.0193,-0.0248,-0.03,-0.0314,-0.0318,-0.0353,-0.0441,-0.044,-0.0439,-0.0358,-0.0351,-0.0345,0,0,0,0,0,0.0042,0.0048,0.003,0.0024,-0.0017,-0.0024,-0.0028,-0.0063,-0.0088,-0.008,-0.0138,-0.019,-0.0302,-0.0303,-0.0321,-0.0326,-0.0442,-0.044,-0.0439,-0.0362,-0.0352,-0.0345,0,0,0,0,0,0,0.0084,0.0041,0.0021,0.0013,0.0,-0.0034,-0.0029,-0.0055,-0.009,-0.01,-0.0181,-0.0201,-0.0242,-0.0288,-0.0288,-0.0348,-0.0381,-0.0382,-0.0316,-0.0309,-0.0302,-0.0263,-0.0358,0,0,0,0,0,0.0093,0.0084,0.0049,0.0048,0.0043,0.001,0.0003,-0.0019,-0.0056,-0.0073,-0.0131,-0.0193,-0.0246,-0.028,-0.0328,-0.036,-0.0352,-0.0374,-0.0367,-0.0361,-0.034,-0.0324,-0.0313,-0.0433,-0.0433,-0.0433,0,0,0.0111,0.0087,0.0082,0.0057,0.0043,0.0041,0.0002,0.0002,-0.0009,-0.0088,-0.0119,-0.0169,-0.0246,-0.0282,-0.0306,-0.0325,-0.0316,-0.0359,-0.0353,-0.0335,-0.0321,-0.0309,-0.0298,-0.0432,-0.0432,-0.0432,0,0,0.0152,0.0122,0.0132,0.012,0.0104,0.0079,0.0081,0.005,0.0027,-0.0003,-0.0064,-0.0102,-0.0188,-0.0233,-0.0272,-0.0253,-0.0277,-0.0279,-0.0222,-0.0207,-0.0196,-0.0187,-0.0129,-0.0116,-0.0281,-0.028,-0.028,0,0.0178,0.0175,0.0139,0.0146,0.0143,0.0097,0.0114,0.0083,0.0039,0.0039,-0.0004,-0.0079,-0.0162,-0.0187,-0.0199,-0.0238,-0.0215,-0.025,-0.0195,-0.0186,-0.0178,-0.0122,-0.0108,-0.0276,-0.0277,-0.0277,-0.0277,0,0.0225,0.022,0.0231,0.0213,0.0207,0.0218,0.0172,0.0164,0.0126,0.0103,0.0086,0.0001,-0.003,-0.0081,-0.0152,-0.0137,-0.0131,-0.0182,-0.021,-0.016,-0.0104,-0.0091,-0.027,-0.0272,-0.0273,-0.0274,0,0,0.029,0.0268,0.027,0.029,0.0245,0.0263,0.0236,0.023,0.0262,0.0195,0.0241,0.0115,0.0105,0.0063,-0.001,-0.0029,0.0023,-0.0084,-0.0086,-0.0014,0.0103,0.0058,0.0068,-0.0016,-0.0014,-0.0013,0.0131,0,0.0343,0.0381,0.034,0.0383,0.0407,0.0355,0.0357,0.0343,0.032,0.0352,0.0275,0.0285,0.0149,0.0159,0.0115,0.0053,0.0058,-0.0008,0.0033,0.0036,-0.0002,0.008,0.0044,0.0164,0.0144,0.0146,0.0148,0,0.0408,0.0425,0.0478,0.0503,0.0512,0.0529,0.0566,0.0561,0.0561,0.0554,0.0543,0.0498,0.0464,0.0349,0.0293,0.0262,0.0196,0.0138,0.0141,0.008,0.0014,0.0102,0.0188,-0.0115,0.0168,0.0166,0.0164,0,0.0516,0.0529,0.0585,0.0588,0.06,0.0633,0.0642,0.0645,0.0685,0.0713,0.0777,0.0712,0.0742,0.0623,0.0475,0.0401,0.0441,0.0328,0.0242,0.0241,0.0208,0.0199,0.0013,0.0317,0.0317,0.0316,0.0316,0,0.0598,0.0647,0.0655,0.0697,0.0793,0.0763,0.087,0.0869,0.0918,0.102,0.0918,0.1018,0.0811,0.0788,0.0602,0.0493,0.0553,0.0292,0.0277,0.0237,0.0229,-0.0042,-0.0197,0.0322,0.0321,0.032,0.0319,0,0.0711,0.0706,0.0788,0.0828,0.0853,0.0933,0.1009,0.1084,0.1124,0.1264,0.1293,0.1293,0.1276,0.1077,0.0939,0.0705,0.0412,0.0515,0.05,0.0477,0.0036,-0.011,-0.0239,-0.0359,0.0435,0.0434,0.0434,0,0.0768,0.0825,0.0903,0.0954,0.0979,0.1078,0.1143,0.1187,0.127,0.1448,0.1538,0.1592,0.1672,0.1467,0.1076,0.0808,0.0506,0.0535,0.0339,0.0037,-0.0137,-0.025,-0.0351,0.0358,0.0357,0.0356,0.0356,0,0.0875,0.0909,0.0966,0.1074,0.1158,0.126,0.1364,0.1476,0.1565,0.1739,0.1979,0.2089,0.1905,0.1643,0.122,0.0955,0.0292,0.0509,0.02,-0.0203,-0.0334,-0.0465,0.0262,0.035,0.035,0.0351,0.0351,0.0351,0.0944,0.1004,0.1072,0.1177,0.128,0.1425,0.1549,0.1704,0.1932,0.2236,0.2311,0.2556,0.2065,0.1507,0.1119,0.0263,0.0292,-0.0042,-0.0177,-0.025,-0.0445,0.028,0.0322,0.0322,0.0322,0.0323,0.0323,0,0.0992,0.105,0.1155,0.1284,0.1415,0.1457,0.1672,0.1843,0.2164,0.2495,0.2765,0.2665,0.2047,0.1344,0.0234,-0.0337,-0.0563,-0.0666,-0.0867,-0.0926,-0.0271,-0.0365,-0.0475,-0.0475,-0.0474,-0.0474,-0.0474,-0.0473,0.1018,0.1098,0.115,0.1357,0.1469,0.167,0.1815,0.213,0.2406,0.2861,0.3048,0.3151,0.2529,0.0596,-0.0763,-0.1077,-0.1453,-0.1509,-0.1685,-0.1314,-0.1269,-0.1225,-0.1355,-0.1671,-0.1672,-0.2305,-0.2311,-0.2316]}],[{"header":{"parameterUnit":"m.s-1","parameterCategory":2,"la1":30.2991,"la2":30.254,"lo1":-89.0895,"lo2":-89.0444,"dy":0.0017,"dx":0.0017,"nx":28,"ny":28,"refTime":"2024-07-04T21:00:00:Z","depth":"2","parameterNumber":2,"parameterNumberName":"U-component_of_CURRENTS"},"data":[0,0,0,0,0,0,0,0,0,0,0,0,0,0,0,0,0,0,0,0,0,0,0,0,0,0,0,0,0,0,0,0,0,0,0,0,0,0,0,0,0,0,0,0,0,0,0,0,0,0,0,0,0,0,0,0,0,0,0.3235,0.3237,0,0.3333,0.3333,0.3333,0.3284,0.3283,0.3281,0.3279,0.3322,0.3324,0.3327,0,0,0,0,0,0,0,0,0,0,0,0,0,0.3057,0.306,0.3235,0.3237,0.3239,0.3333,0.3333,0.3334,0.3285,0.3282,0.328,0.3278,0.3321,0.3324,0.3327,0,0,0,0,0,0,0,0,0,0,0,0,0,0.3134,0.3061,0.3235,0.3232,0.3234,0.3333,0.3333,0.3334,0.3285,0.3282,0.328,0.3277,0.332,0.3324,0.3328,0.3406,0,0,0.334,0.3342,0,0,0,0,0,0,0,0,0.313,0.314,0.3231,0.3233,0.3235,0.3301,0.3287,0.3358,0.3286,0.3256,0.3279,0.3276,0.3317,0.3322,0.3334,0.3408,0.341,0.3341,0.3343,0.3345,0.3346,0,0,0,0,0,0,0,0.3125,0.3136,0.3265,0.3233,0.3236,0.3245,0.3251,0.33,0.3293,0.3259,0.3258,0.3283,0.3316,0.333,0.3335,0.3411,0.3341,0.3344,0.3347,0.3349,0.3453,0.3453,0,0,0,0,0,0,0.3131,0.3131,0.3262,0.3269,0.3185,0.325,0.3257,0.3275,0.3293,0.3297,0.3285,0.3281,0.3324,0.333,0.3336,0.3411,0.3345,0.3349,0.3351,0.3453,0.3453,0.3453,0,0,0,0,0,0,0.3127,0.3142,0.3258,0.3209,0.3225,0.3257,0.3277,0.3279,0.3292,0.3316,0.3315,0.3297,0.3323,0.333,0.3361,0.3412,0.3351,0.3355,0.3452,0.3453,0.3453,0.3572,0,0,0,0,0,0,0.3121,0.3139,0.3148,0.3209,0.3229,0.329,0.3281,0.3283,0.3316,0.331,0.3327,0.3327,0.3321,0.3355,0.3365,0.3417,0.3358,0.3452,0.3453,0.3453,0.3568,0.3577,0.3584,0,0,0,0,0,0.3114,0.3136,0.3148,0.3164,0.3242,0.3292,0.33,0.3308,0.3319,0.3312,0.3329,0.3326,0.3364,0.336,0.3372,0.3425,0.3452,0.3452,0.3453,0.3565,0.3575,0.3584,0,0,0,0,0,0,0.3079,0.3136,0.3149,0.3191,0.3229,0.3285,0.3311,0.3323,0.3338,0.3353,0.335,0.3352,0.3392,0.3386,0.338,0.3446,0.3402,0.3405,0.3482,0.3493,0.35,0.351,0.3361,0,0,0,0,0,0.3078,0.3092,0.3158,0.3189,0.3225,0.3275,0.3302,0.3318,0.3351,0.3355,0.3379,0.3396,0.3409,0.3429,0.3438,0.3502,0.3544,0.3531,0.3539,0.3547,0.3557,0.3673,0.3695,0.3455,0.3455,0.3455,0,0,0.3082,0.3112,0.3125,0.318,0.3229,0.3255,0.3281,0.3343,0.3375,0.3365,0.3424,0.3433,0.3426,0.3474,0.3493,0.3479,0.3639,0.3548,0.3555,0.3561,0.3677,0.3701,0.3723,0.3456,0.3456,0.3456,0,0,0.3098,0.3128,0.3152,0.3206,0.3283,0.3267,0.3286,0.3366,0.3414,0.3466,0.3469,0.3503,0.3534,0.355,0.3554,0.3616,0.3671,0.362,0.3694,0.3808,0.3831,0.3851,0.3958,0.3987,0.3635,0.3635,0.3636,0,0.309,0.313,0.3167,0.3234,0.3282,0.3268,0.3323,0.3358,0.3433,0.3523,0.3482,0.3581,0.3563,0.3651,0.3647,0.3641,0.372,0.3669,0.3827,0.3847,0.3866,0.397,0.4001,0.3641,0.364,0.364,0.3639,0,0.3171,0.3186,0.3223,0.3252,0.3302,0.3341,0.3412,0.3458,0.3485,0.3554,0.3683,0.3677,0.3743,0.3733,0.37,0.3835,0.3854,0.3824,0.3819,0.3899,0.4002,0.4031,0.3649,0.3647,0.3646,0.3644,0,0,0.3144,0.3238,0.3243,0.329,0.333,0.3386,0.3443,0.352,0.362,0.3679,0.3834,0.3836,0.3897,0.3901,0.3905,0.3973,0.4149,0.3962,0.3965,0.4098,0.4437,0.4272,0.4288,0.4181,0.4186,0.419,0.4466,0,0.3159,0.3233,0.3295,0.3346,0.3383,0.3453,0.3518,0.3629,0.3692,0.3829,0.3908,0.4024,0.3949,0.4016,0.4075,0.4134,0.423,0.4078,0.4311,0.4317,0.4187,0.4316,0.3965,0.4165,0.4494,0.4499,0.4503,0,0.3203,0.3229,0.3322,0.3417,0.3466,0.35,0.3642,0.3741,0.392,0.4013,0.4143,0.422,0.4349,0.4253,0.4443,0.4369,0.4415,0.4438,0.445,0.4271,0.4206,0.413,0.4207,0.4552,0.4548,0.4545,0.4541,0,0.3152,0.3236,0.3296,0.3357,0.3479,0.358,0.3622,0.3806,0.3942,0.4167,0.4257,0.4441,0.4519,0.4636,0.4674,0.461,0.4865,0.4789,0.4694,0.4685,0.4411,0.4366,0.4939,0.4939,0.4939,0.4938,0.4937,0,0.3151,0.3221,0.3289,0.3356,0.3446,0.3615,0.3744,0.3855,0.4058,0.4211,0.4377,0.4487,0.4616,0.4763,0.4802,0.485,0.4996,0.4742,0.4755,0.4437,0.4394,0.4723,0.4694,0.4948,0.4946,0.4944,0.4942,0,0.32,0.3239,0.3292,0.3391,0.3435,0.3545,0.3707,0.38,0.404,0.4231,0.4325,0.4564,0.4762,0.489,0.5067,0.4974,0.5069,0.5047,0.4657,0.4613,0.4787,0.4761,0.4997,0.4994,0.4991,0.4988,0.4986,0,0.3222,0.325,0.3279,0.3281,0.3346,0.3472,0.3517,0.3736,0.3842,0.425,0.4328,0.4624,0.4707,0.4927,0.4938,0.5043,0.5097,0.4689,0.4449,0.481,0.48,0.4778,0.4756,0.4168,0.4159,0.4152,0.4147,0,0.3204,0.3222,0.3251,0.3196,0.322,0.3313,0.3416,0.3475,0.3794,0.3945,0.4171,0.4312,0.456,0.448,0.463,0.4625,0.4641,0.4542,0.5104,0.4162,0.4038,0.4023,0.4028,0.4085,0.4091,0.4095,0.4099,0.4101,0.3107,0.3108,0.3053,0.3073,0.3088,0.3165,0.3147,0.3287,0.3432,0.3681,0.3881,0.3989,0.4074,0.4122,0.4066,0.4068,0.4344,0.4111,0.413,0.4157,0.3967,0.3839,0.3816,0.3821,0.3824,0.3828,0.3831,0,0.2923,0.2965,0.291,0.2892,0.2878,0.3008,0.3079,0.3067,0.3128,0.3362,0.348,0.3293,0.3316,0.3491,0.3395,0.3367,0.3319,0.3224,0.3128,0.3195,0.3253,0.3011,0.261,0.2606,0.2602,0.2598,0,0,0.2804,0.2723,0.2749,0.268,0.2739,0.2728,0.2752,0.2732,0.2819,0.2838,0.2895,0.3169,0.3351,0.292,0.2876,0.2728,0.2925,0.2628,0.362,0.3573,0.3625,0.3793,0.3499,0,0,0,0,0]},{"header":{"parameterUnit":"m.s-1","parameterCategory":2,"la1":30.2991,"la2":30.254,"lo1":-89.0895,"lo2":-89.0444,"dy":0.0017,"dx":0.0017,"nx":28,"ny":28,"refTime":"2024-07-04T21:00:00:Z","depth":"2","parameterNumber":3,"parameterNumberName":"V-component_of_CURRENTS"},"data":[0,0,0,0,0,0,0,0,0,0,0,0,0,0,0,0,0,0,0,0,0,0,0,0,0,0,0,0,0,0,0,0,0,0,0,0,0,0,0,0,0,0,0,0,0,0,0,0,0,0,0,0,0,0,0,0,0,0,0.0043,0.0042,0,-0.001,-0.0011,-0.0012,-0.0071,-0.0072,-0.0072,-0.0073,-0.0222,-0.0225,-0.0229,0,0,0,0,0,0,0,0,0,0,0,0,0,0.0056,0.0056,0.0043,0.0042,0.0042,-0.001,-0.0011,-0.0012,-0.0071,-0.0072,-0.0072,-0.0073,-0.0221,-0.0225,-0.0229,0,0,0,0,0,0,0,0,0,0,0,0,0,0.0029,0.0056,0.0043,0.0009,0.0006,-0.001,-0.0011,-0.0013,-0.0071,-0.0072,-0.0072,-0.0073,-0.0219,-0.0224,-0.023,-0.0245,0,0,-0.0245,-0.0248,0,0,0,0,0,0,0,0,0.003,0.0028,0.0014,0.0011,0.0007,-0.0032,-0.0061,-0.0094,-0.0071,-0.0045,-0.0073,-0.0074,-0.0164,-0.0174,-0.0186,-0.0252,-0.0258,-0.0246,-0.0249,-0.0251,-0.0253,0,0,0,0,0,0,0,0.0032,0.0029,0.0018,0.0014,0.001,-0.0016,-0.0021,-0.0068,-0.0104,-0.0048,-0.0051,-0.0051,-0.0168,-0.0181,-0.019,-0.0261,-0.0246,-0.025,-0.0254,-0.0256,-0.0346,-0.0345,0,0,0,0,0,0,0.0049,0.0032,0.002,0.0017,0.0021,-0.0015,-0.0021,-0.0021,-0.0102,-0.0113,-0.0051,-0.0054,-0.0171,-0.0184,-0.0196,-0.0224,-0.0251,-0.0256,-0.0259,-0.0346,-0.0345,-0.0345,0,0,0,0,0,0,0.0049,0.0048,0.0022,0.0026,0.0021,-0.0014,-0.0014,-0.0022,-0.0033,-0.0102,-0.0116,-0.0053,-0.0172,-0.0188,-0.0228,-0.0231,-0.0258,-0.0263,-0.0347,-0.0346,-0.0345,-0.0279,0,0,0,0,0,0,0.005,0.0048,0.0051,0.0027,0.0021,0.0026,-0.0013,-0.0022,-0.003,-0.0035,-0.0109,-0.0124,-0.0174,-0.022,-0.0233,-0.0238,-0.0267,-0.0348,-0.0347,-0.0345,-0.0282,-0.0276,-0.027,0,0,0,0,0,0.005,0.0072,0.0052,0.005,0.0027,0.0028,0.0022,-0.0008,-0.0029,-0.0024,-0.0076,-0.0121,-0.0221,-0.0223,-0.0239,-0.0246,-0.0349,-0.0347,-0.0346,-0.0285,-0.0277,-0.0271,0,0,0,0,0,0,0.0081,0.0067,0.0045,0.006,0.0047,0.0019,0.0023,0.0001,-0.0035,-0.0042,-0.0115,-0.0132,-0.0168,-0.0209,-0.021,-0.0265,-0.0292,-0.0293,-0.024,-0.0233,-0.0228,-0.0189,-0.0271,0,0,0,0,0,0.0089,0.0103,0.0078,0.0092,0.0085,0.0053,0.0048,0.0032,0.0,-0.0016,-0.0073,-0.0128,-0.0173,-0.0203,-0.0247,-0.0279,-0.0303,-0.0291,-0.0285,-0.028,-0.0258,-0.0294,-0.029,-0.0339,-0.0339,-0.0339,0,0,0.0104,0.0102,0.0107,0.01,0.0083,0.0095,0.0047,0.0054,0.0049,-0.0028,-0.0059,-0.011,-0.0174,-0.0209,-0.0229,-0.0246,-0.0279,-0.0278,-0.0274,-0.0253,-0.0292,-0.0287,-0.0283,-0.0338,-0.0338,-0.0339,0,0,0.0155,0.0138,0.0164,0.015,0.014,0.0135,0.0141,0.011,0.0076,0.005,-0.0009,-0.005,-0.0126,-0.017,-0.0202,-0.0187,-0.0243,-0.0209,-0.0158,-0.0194,-0.019,-0.0187,-0.0211,-0.0211,-0.0211,-0.0211,-0.0211,0,0.0173,0.0198,0.0172,0.0183,0.0181,0.0159,0.0179,0.0152,0.0109,0.0083,0.0052,-0.004,-0.0103,-0.0139,-0.0139,-0.0175,-0.0199,-0.0183,-0.0186,-0.0184,-0.0181,-0.0207,-0.0208,-0.0208,-0.0208,-0.0209,-0.0209,0,0.0231,0.0242,0.0258,0.027,0.0264,0.0286,0.0246,0.0232,0.0198,0.0165,0.0114,0.0037,-0.0012,-0.0049,-0.0095,-0.0113,-0.0135,-0.0172,-0.0203,-0.0172,-0.0202,-0.0203,-0.0203,-0.0204,-0.0205,-0.0206,0,0,0.0295,0.0301,0.0304,0.0311,0.0308,0.0316,0.0309,0.0298,0.0301,0.0235,0.0224,0.0133,0.0099,0.0063,-0.0005,-0.0045,-0.0065,-0.0097,-0.01,-0.0116,-0.0135,-0.0196,-0.0204,-0.0107,-0.0107,-0.0107,-0.0161,0,0.0351,0.0398,0.0381,0.0425,0.0444,0.0403,0.0404,0.038,0.035,0.0335,0.0245,0.0219,0.0137,0.0119,0.0067,-0.0018,-0.0065,-0.0045,-0.0164,-0.0166,-0.0222,-0.0207,-0.0166,-0.0215,-0.0163,-0.0163,-0.0163,0,0.0408,0.0436,0.0471,0.0495,0.0497,0.0518,0.052,0.0513,0.0477,0.0449,0.041,0.0349,0.0293,0.0216,0.009,0.0107,-0.0002,-0.0081,-0.0086,-0.0162,-0.0231,-0.0238,-0.022,-0.0167,-0.0166,-0.0166,-0.0166,0,0.0459,0.0502,0.0535,0.0531,0.0548,0.0548,0.0573,0.0549,0.055,0.0531,0.054,0.0466,0.0441,0.0306,0.0147,0.0117,0.0013,-0.0056,-0.0217,-0.0222,-0.0218,-0.0224,-0.0155,-0.0155,-0.0155,-0.0155,-0.0155,0,0.0503,0.0522,0.0563,0.0567,0.0633,0.0604,0.067,0.0661,0.0667,0.0725,0.0608,0.0653,0.0461,0.0372,0.0203,0.0011,0.0054,-0.0194,-0.0239,-0.0195,-0.0198,-0.0181,-0.0183,-0.0157,-0.0156,-0.0156,-0.0156,0,0.0483,0.051,0.0568,0.0622,0.0647,0.068,0.0761,0.0817,0.0787,0.0859,0.0859,0.0797,0.0704,0.0485,0.0297,0.0091,-0.0092,-0.0182,-0.0111,-0.0149,-0.0322,-0.032,-0.0373,-0.0376,-0.0378,-0.038,-0.0382,0,0.0461,0.0494,0.0611,0.0682,0.0698,0.0776,0.0859,0.0884,0.0955,0.0984,0.1037,0.0949,0.0949,0.0619,0.028,-0.0041,-0.0083,-0.0263,-0.0339,-0.0305,-0.0344,-0.0338,-0.0334,-0.0301,-0.0302,-0.0303,-0.0303,0,0.0449,0.05,0.057,0.0742,0.085,0.0947,0.1062,0.1168,0.1222,0.1299,0.1426,0.1416,0.1061,0.077,0.0252,0.0029,-0.0213,-0.0292,-0.025,-0.0265,-0.0245,-0.0281,-0.0277,-0.0309,-0.0308,-0.0308,-0.0307,-0.0307,0.0476,0.0537,0.0691,0.0838,0.0976,0.1132,0.1296,0.1441,0.1626,0.1765,0.1735,0.1705,0.1253,0.0619,0.0206,-0.0253,-0.0255,-0.0429,-0.0423,-0.0417,-0.0412,-0.0399,-0.0489,-0.0489,-0.049,-0.049,-0.049,0,0.0544,0.062,0.0783,0.0998,0.1193,0.1191,0.1444,0.1623,0.1936,0.1992,0.2081,0.1672,0.124,0.0731,0.0037,-0.0405,-0.0418,-0.0525,-0.0441,-0.0433,-0.0426,-0.0419,-0.0499,-0.05,-0.0501,-0.0502,0,0,0.0587,0.0762,0.0852,0.1175,0.1299,0.1541,0.1715,0.1962,0.2089,0.2241,0.2191,0.2003,0.1361,0.086,0.0284,-0.0098,-0.0161,-0.0173,-0.0123,0.0052,0.0065,-0.0335,-0.031,0,0,0,0,0]}],[{"header":{"parameterUnit":"m.s-1","parameterCategory":2,"la1":30.2991,"la2":30.254,"lo1":-89.0895,"lo2":-89.0444,"dy":0.0017,"dx":0.0017,"nx":28,"ny":28,"refTime":"2024-07-04T21:00:00:Z","depth":"4","parameterNumber":2,"parameterNumberName":"U-component_of_CURRENTS"},"data":[0,0,0,0,0,0,0,0,0,0,0,0,0,0,0,0,0,0,0,0,0,0,0,0,0,0,0,0,0,0,0,0,0,0,0,0,0,0,0,0,0,0,0,0,0,0,0,0,0,0,0,0,0,0,0,0,0,0,0.1621,0.1622,0,0.1716,0.1717,0.1718,0.1809,0.181,0.1812,0.1813,0.1893,0.1894,0.1895,0,0,0,0,0,0,0,0,0,0,0,0,0,0.1544,0.1544,0.1621,0.1623,0.1624,0.1716,0.1717,0.1718,0.1809,0.181,0.1812,0.1813,0.1893,0.1894,0.1895,0,0,0,0,0,0,0,0,0,0,0,0,0,0.16,0.1544,0.1621,0.1681,0.1687,0.1716,0.1717,0.1719,0.1808,0.181,0.1812,0.1814,0.1893,0.1894,0.1895,0.1866,0,0,0.19,0.1901,0,0,0,0,0,0,0,0,0.1597,0.1603,0.1671,0.1677,0.1684,0.1754,0.172,0.1768,0.1808,0.1761,0.1813,0.1815,0.1845,0.185,0.1862,0.187,0.1874,0.19,0.1901,0.1902,0.1902,0,0,0,0,0,0,0,0.1593,0.16,0.1658,0.1672,0.168,0.1712,0.1722,0.1729,0.179,0.1765,0.1773,0.1784,0.1848,0.1861,0.1865,0.1875,0.19,0.1901,0.1902,0.1903,0.204,0.2042,0,0,0,0,0,0,0.158,0.1596,0.1655,0.1661,0.1646,0.1712,0.1723,0.1728,0.179,0.1802,0.1783,0.1788,0.1857,0.1863,0.1868,0.1967,0.1902,0.1903,0.1904,0.2037,0.204,0.2043,0,0,0,0,0,0,0.1578,0.1584,0.1651,0.1632,0.1643,0.1711,0.1717,0.1729,0.1786,0.1804,0.1816,0.1832,0.1859,0.1866,0.1931,0.1965,0.1904,0.1905,0.2034,0.2038,0.2042,0.208,0,0,0,0,0,0,0.1575,0.1583,0.1607,0.163,0.1643,0.1699,0.1716,0.173,0.1788,0.1798,0.1848,0.1856,0.1861,0.1929,0.1933,0.1966,0.1906,0.203,0.2036,0.2041,0.2076,0.2085,0.2094,0,0,0,0,0,0.1572,0.1588,0.1607,0.1616,0.1666,0.17,0.1711,0.1764,0.1789,0.1821,0.1869,0.1857,0.1965,0.1932,0.1936,0.1971,0.2028,0.2034,0.204,0.2071,0.2083,0.2093,0,0,0,0,0,0,0.1568,0.1599,0.1621,0.1647,0.1687,0.1717,0.1755,0.1783,0.1844,0.1868,0.1882,0.1893,0.1964,0.1968,0.1932,0.2032,0.1997,0.2005,0.202,0.2031,0.204,0.2036,0.1907,0,0,0,0,0,0.1574,0.1597,0.1632,0.1658,0.168,0.1724,0.1754,0.179,0.1834,0.1865,0.1899,0.1945,0.1983,0.201,0.2042,0.2086,0.2109,0.2118,0.2127,0.2134,0.2137,0.2224,0.224,0.2064,0.2064,0.2064,0,0,0.1574,0.1601,0.1613,0.166,0.1695,0.1722,0.1748,0.1805,0.1838,0.186,0.1932,0.1974,0.2004,0.2065,0.2097,0.2078,0.2198,0.2142,0.2147,0.2147,0.2232,0.2249,0.2264,0.2068,0.2067,0.2067,0,0,0.1574,0.1617,0.1634,0.1665,0.1728,0.1756,0.1779,0.1836,0.1883,0.1944,0.198,0.205,0.2098,0.2136,0.2155,0.2232,0.2242,0.2253,0.2291,0.2376,0.239,0.2403,0.245,0.2467,0.2257,0.2258,0.2258,0,0.1585,0.1595,0.1648,0.1671,0.1697,0.1769,0.1791,0.1841,0.1917,0.1966,0.1978,0.2103,0.2125,0.2204,0.224,0.2248,0.2295,0.2239,0.2385,0.2399,0.2412,0.2456,0.2475,0.226,0.226,0.226,0.2259,0,0.1571,0.1603,0.1618,0.1666,0.1713,0.1744,0.1812,0.1881,0.1944,0.1998,0.2112,0.2162,0.2246,0.2263,0.227,0.2382,0.2385,0.2383,0.2349,0.2431,0.2474,0.2492,0.2264,0.2263,0.2262,0.2262,0,0,0.1532,0.1594,0.1605,0.1626,0.1711,0.1741,0.1821,0.1909,0.1982,0.2072,0.2169,0.2243,0.2314,0.2343,0.2381,0.2445,0.2566,0.2462,0.2465,0.2491,0.275,0.2577,0.258,0.2606,0.261,0.2613,0.274,0,0.1508,0.1528,0.1582,0.1622,0.1634,0.1735,0.1806,0.1912,0.2009,0.213,0.2225,0.2341,0.2333,0.241,0.2472,0.2559,0.2619,0.2531,0.268,0.2684,0.2507,0.2597,0.2624,0.2754,0.2758,0.2761,0.2763,0,0.1456,0.1487,0.1507,0.1598,0.1622,0.1681,0.1823,0.1894,0.2081,0.2176,0.2314,0.2415,0.2555,0.2536,0.2703,0.266,0.2713,0.2751,0.2757,0.2592,0.2545,0.2659,0.2796,0.2793,0.2791,0.2789,0.2787,0,0.1352,0.1428,0.1443,0.1464,0.1586,0.1658,0.175,0.1922,0.2016,0.2239,0.2347,0.2519,0.2643,0.2738,0.2837,0.2804,0.3,0.2962,0.2843,0.283,0.2928,0.2912,0.3072,0.3072,0.3072,0.3071,0.3071,0,0.1256,0.1276,0.141,0.1412,0.1499,0.1612,0.1738,0.1863,0.2064,0.2184,0.2381,0.2493,0.2711,0.2847,0.2894,0.2926,0.3057,0.2861,0.2861,0.294,0.2925,0.294,0.2923,0.3076,0.3075,0.3074,0.3073,0,0.1117,0.1184,0.1221,0.1374,0.1441,0.1507,0.173,0.1812,0.2023,0.2189,0.2283,0.2543,0.2726,0.2888,0.3068,0.2989,0.3043,0.3019,0.3101,0.3102,0.2797,0.2781,0.2887,0.2882,0.2878,0.2875,0.2872,0,0.1035,0.1037,0.1188,0.1235,0.1316,0.1452,0.1549,0.1778,0.1872,0.2172,0.2233,0.2514,0.2667,0.2783,0.2945,0.3051,0.3015,0.3003,0.2876,0.2793,0.2784,0.2774,0.2764,0.2866,0.2865,0.2863,0.2862,0,0.0909,0.0977,0.1021,0.1124,0.1226,0.132,0.148,0.1552,0.1804,0.2005,0.2174,0.232,0.2523,0.2685,0.2818,0.2862,0.2986,0.2959,0.2966,0.2846,0.2768,0.276,0.2755,0.2848,0.285,0.2852,0.2852,0,0.084,0.0847,0.0927,0.1007,0.1105,0.1165,0.1278,0.1426,0.1568,0.191,0.1951,0.2243,0.2485,0.2586,0.2681,0.2755,0.2702,0.2582,0.2607,0.2625,0.2483,0.2341,0.2303,0,0,0,0,0,0.0758,0.0756,0.0813,0.0878,0.0958,0.1026,0.1214,0.1335,0.1589,0.1656,0.1816,0.2,0.22,0.2339,0.2372,0.2555,0.2698,0.2574,0.2566,0.2769,0.2786,0.2645,0,0,0,0,0,0,0.07,0.0737,0.0762,0.0752,0.0768,0.0854,0.0966,0.1143,0.1215,0.1488,0.1628,0.1825,0.2071,0.2163,0.2311,0.2357,0.23,0.2755,0.2749,0.276,0.2775,0.2788,0.2649,0,0,0,0,0]},{"header":{"parameterUnit":"m.s-1","parameterCategory":2,"la1":30.2991,"la2":30.254,"lo1":-89.0895,"lo2":-89.0444,"dy":0.0017,"dx":0.0017,"nx":28,"ny":28,"refTime":"2024-07-04T21:00:00:Z","depth":"4","parameterNumber":3,"parameterNumberName":"V-component_of_CURRENTS"},"data":[0,0,0,0,0,0,0,0,0,0,0,0,0,0,0,0,0,0,0,0,0,0,0,0,0,0,0,0,0,0,0,0,0,0,0,0,0,0,0,0,0,0,0,0,0,0,0,0,0,0,0,0,0,0,0,0,0,0,0.0156,0.0156,0,0.0123,0.0122,0.0122,0.0073,0.0072,0.0072,0.0071,-0.0008,-0.001,-0.0011,0,0,0,0,0,0,0,0,0,0,0,0,0,0.0138,0.0139,0.0156,0.0156,0.0156,0.0123,0.0122,0.0122,0.0073,0.0072,0.0072,0.0071,-0.0008,-0.0009,-0.0011,0,0,0,0,0,0,0,0,0,0,0,0,0,0.0128,0.0139,0.0156,0.0129,0.0127,0.0123,0.0122,0.0122,0.0073,0.0072,0.0071,0.0071,-0.0007,-0.0009,-0.0011,-0.0006,0,0,-0.0018,-0.0019,0,0,0,0,0,0,0,0,0.0128,0.0128,0.0133,0.0131,0.0128,0.0103,0.0087,0.0077,0.0074,0.0091,0.0071,0.007,0.0027,0.0022,0.0015,-0.001,-0.0013,-0.0019,-0.002,-0.0021,-0.0022,0,0,0,0,0,0,0,0.0129,0.0129,0.0141,0.0133,0.013,0.0106,0.0103,0.0085,0.0062,0.009,0.0087,0.0087,0.0025,0.0018,0.0013,-0.0014,-0.0019,-0.0021,-0.0022,-0.0023,-0.0079,-0.008,0,0,0,0,0,0,0.0141,0.013,0.0142,0.014,0.0129,0.0107,0.0104,0.011,0.0063,0.0056,0.0088,0.0085,0.0022,0.0016,0.001,0.0,-0.0021,-0.0023,-0.0024,-0.0079,-0.0079,-0.008,0,0,0,0,0,0,0.0141,0.0143,0.0143,0.0135,0.0134,0.0109,0.0116,0.011,0.0103,0.0063,0.0054,0.0086,0.0021,0.0013,-0.0012,-0.0003,-0.0024,-0.0026,-0.0079,-0.0079,-0.008,-0.0011,0,0,0,0,0,0,0.0141,0.0143,0.015,0.0137,0.0135,0.0144,0.0117,0.011,0.0105,0.0101,0.0059,0.005,0.002,-0.0009,-0.0015,-0.0007,-0.0028,-0.0079,-0.0079,-0.0079,-0.0013,-0.0009,-0.0005,0,0,0,0,0,0.014,0.0161,0.0151,0.0152,0.0146,0.0145,0.0142,0.0118,0.0106,0.0107,0.0072,0.0052,-0.0015,-0.001,-0.0017,-0.001,-0.0079,-0.0079,-0.0079,-0.0015,-0.001,-0.0006,0,0,0,0,0,0,0.0158,0.0158,0.0146,0.0165,0.0155,0.0137,0.0141,0.0126,0.0101,0.01,0.0054,0.0043,0.0021,-0.0004,0.0002,-0.003,-0.0052,-0.0053,-0.0,0.0004,0.0008,0.0032,-0.003,0,0,0,0,0,0.0166,0.0184,0.017,0.0186,0.0183,0.0162,0.0159,0.0149,0.0128,0.0116,0.0083,0.0048,0.0016,0.0003,-0.0029,-0.0038,-0.0084,-0.0041,-0.0037,-0.0033,-0.002,-0.0093,-0.0094,-0.0081,-0.0081,-0.0081,0,0,0.018,0.0182,0.0192,0.0191,0.0182,0.0192,0.0157,0.0165,0.017,0.0113,0.0103,0.0061,0.0015,-0.0003,-0.0015,-0.0022,-0.0063,-0.0033,-0.0029,-0.0019,-0.0093,-0.0095,-0.0096,-0.0081,-0.0081,-0.0081,0,0,0.0221,0.0215,0.024,0.0236,0.0234,0.0223,0.0227,0.021,0.0194,0.0184,0.0136,0.0099,0.0063,0.0024,0.0002,0.001,-0.0043,0.0,0.0047,-0.0024,-0.0026,-0.0028,-0.0092,-0.01,0.0007,0.0007,0.0007,0,0.0233,0.0265,0.0246,0.0266,0.0275,0.024,0.0268,0.0248,0.0224,0.0211,0.019,0.0116,0.0076,0.0043,0.0045,0.002,-0.0026,0.0036,-0.0018,-0.0021,-0.0024,-0.0089,-0.0099,0.001,0.001,0.001,0.0009,0,0.0293,0.0311,0.0327,0.0342,0.0346,0.0367,0.0343,0.0334,0.0312,0.0285,0.0245,0.018,0.0135,0.0114,0.0087,0.0049,0.002,-0.0008,-0.0025,-0.0021,-0.0091,-0.0102,0.0015,0.0014,0.0013,0.0012,0,0,0.0335,0.0364,0.0369,0.0393,0.0393,0.0411,0.041,0.0401,0.0399,0.035,0.0332,0.027,0.0224,0.0195,0.0141,0.0089,0.0023,0.0045,0.004,-0.0009,-0.013,-0.0127,-0.014,-0.0015,-0.0016,-0.0017,-0.0171,0,0.0385,0.0449,0.0447,0.0505,0.0534,0.0508,0.0512,0.0496,0.0459,0.0425,0.0343,0.0305,0.0256,0.0233,0.017,0.0055,-0.0003,0.0068,-0.0135,-0.014,-0.0131,-0.0152,-0.0022,-0.018,-0.0183,-0.0185,-0.0186,0,0.0444,0.048,0.0553,0.0592,0.0602,0.063,0.0638,0.0636,0.0568,0.0538,0.0473,0.0393,0.0304,0.0261,0.0073,0.012,0.0011,-0.0078,-0.0087,-0.0112,-0.0158,-0.0188,-0.0208,-0.0206,-0.0205,-0.0203,-0.0202,0,0.0501,0.0555,0.0625,0.064,0.0672,0.07,0.071,0.0673,0.0681,0.0602,0.0591,0.0454,0.0388,0.0233,0.0046,0.0054,-0.0167,-0.019,-0.0292,-0.0294,-0.028,-0.0276,-0.0318,-0.0318,-0.0317,-0.0317,-0.0316,0,0.0558,0.0612,0.0663,0.0701,0.0778,0.0772,0.0827,0.0807,0.078,0.0787,0.0656,0.0614,0.0379,0.0219,0.0053,-0.0156,-0.0174,-0.0285,-0.0333,-0.0249,-0.024,-0.0289,-0.0283,-0.0323,-0.0321,-0.032,-0.0319,0,0.0609,0.0642,0.0726,0.0785,0.0813,0.0868,0.0928,0.0951,0.0918,0.0917,0.0899,0.0722,0.0505,0.0267,-0.0011,-0.0139,-0.0344,-0.0411,-0.0301,-0.0342,-0.0425,-0.0415,-0.0543,-0.0544,-0.0545,-0.0546,-0.0547,0,0.0647,0.0698,0.0798,0.0849,0.0885,0.0963,0.1012,0.1025,0.105,0.0982,0.0981,0.0774,0.063,0.0239,-0.0016,-0.0352,-0.0387,-0.0492,-0.0453,-0.0414,-0.0449,-0.0437,-0.0425,-0.0549,-0.0549,-0.0549,-0.0549,0,0.0706,0.0745,0.0803,0.0913,0.0995,0.1087,0.1154,0.1187,0.1183,0.1163,0.104,0.0819,0.0565,0.0241,-0.0026,-0.0259,-0.0426,-0.0504,-0.0503,-0.0467,-0.0422,-0.0453,-0.044,-0.0553,-0.0552,-0.0552,-0.0552,0,0.074,0.0793,0.0869,0.0962,0.1069,0.1162,0.1202,0.1219,0.1245,0.117,0.112,0.084,0.0665,0.0288,0.0046,-0.0193,-0.0245,-0.0302,-0.0312,-0.0312,-0.0195,-0.0102,-0.0175,0,0,0,0,0,0.0758,0.0813,0.0905,0.1006,0.111,0.1179,0.1271,0.1294,0.1299,0.1232,0.1181,0.0945,0.0551,0.0364,0.0127,0.0027,-0.0286,-0.0258,-0.0356,-0.0572,-0.0568,-0.047,0,0,0,0,0,0,0.077,0.0854,0.0901,0.1024,0.1094,0.1222,0.1287,0.1294,0.1252,0.1209,0.0997,0.0893,0.0504,0.0681,0.0119,0.0044,-0.0046,-0.0445,-0.0449,-0.0574,-0.0571,-0.0567,-0.0465,0,0,0,0,0]}]]